Location: Zengebe
(1.4833°N, 32.5167°E)
Time: 22:48:49
(UTC+00:00)

Genesis I - Pass Details

Date: 07 June 2020
Orbit: 506 x 516 km, 64.5° (Epoch: 10 July)

Event Time Altitude Azimuth Distance (km) Brightness Sun altitude
Exits shadow 03:08:11 - 204° (SSW) 2,238 6.0 -8.8°
Reaches altitude 10° 03:09:25 10° 205° (SSW) 1,739 5.4 -8.5°
Maximum altitude 03:13:18 80° 291° (WNW) 526 3.1 -7.6°
Drops below altitude 10° 03:17:11 10° 19° (NNE) 1,732 6.5 -6.7°
Sets 03:19:21 0° 20° (NNE) 2,615 7.5 -6.2°
